Visibility
15.0 4.7 11.5 15.0 15.0 15.0 15.0 15.0 15.0 7.9 15.0 15.0 15.0 15.0 15.0 15.0 15.0 15.0 15.0 15.0 15.0 15.0 15.0 15.0 15.0 15.0 15.0 15.0 15.0 15.0 15.0 15.0 15.0 15.0 15.0 15.0 15.0 15.0 15.0 15.0 15.0 15.0 15.0
15.0 15.0 15.0 15.0 15.0 15.0 15.0 15.0 15.0 15.0 15.0 15.0 15.0 15.0 15.0 15.0 15.0 15.0 15.0 4.7 15.0 15.0 15.0 15.0 15.0 15.0 15.0 14.4 15.0 15.0 15.0 15.0 15.0 15.0 15.0 15.0 15.0 15.0 15.0 15.0 15.0 15.0 15.0
15.0 15.0 15.0 15.0 15.0 15.0 15.0 15.0 15.0 9.1 15.0 15.0 15.0 15.0 15.0 15.0 15.0 15.0 15.0 13.4 15.0 15.0 15.0 15.0 15.0 15.0 15.0 15.0 15.0 15.0 15.0 15.0 15.0 15.0 15.0 15.0 15.0 15.0 15.0 15.0 15.0 15.0 15.0
15.0 15.0 15.0 15.0 15.0 15.0 15.0 15.0 15.0 15.0 15.0 15.0 15.0 15.0 15.0 15.0 15.0 15.0 15.0 15.0 12.4 15.0 15.0 15.0 15.0 15.0 15.0 15.0 15.0 15.0 15.0 15.0 11.5 10.6 15.0 15.0 15.0 15.0 15.0 15.0 10.0 0.1 0.1
15.0 15.0 11.5 13.9 15.0 15.0 15.0 15.0 15.0 15.0 15.0 15.0 15.0 15.0 15.0 15.0 15.0 15.0 15.0 15.0 15.0 15.0 15.0 15.0 15.0 15.0 15.0 15.0 15.0 15.0 15.0 15.0 15.0 15.0 15.0 15.0 15.0 8.7 4.7 10.4 15.0 1.0 0.1
15.0 15.0 15.0 15.0 15.0 15.0 15.0 15.0 15.0 3.6 15.0 15.0 15.0 15.0 15.0 15.0 15.0 15.0 15.0 15.0 15.0 15.0 15.0 15.0 15.0 15.0 15.0 15.0 15.0 15.0 15.0 15.0 15.0 15.0 15.0 15.0 15.0 15.0 15.0 15.0 15.0 0.1 3.2
15.0 15.0 15.0 15.0 15.0 12.7 15.0 15.0 15.0 4.6 11.9 12.2 15.0 15.0 15.0 15.0 15.0 15.0 15.0 15.0 15.0 15.0 15.0 15.0 15.0 15.0 6.1 15.0 6.5 3.8 0.7 13.7 15.0 15.0 15.0 15.0 15.0 15.0 11.1 0.8 15.0 5.1 6.1
14.0 11.3 15.0 15.0 15.0 15.0 8.1 14.1 13.6 3.5 3.0 14.4 4.7 13.2 15.0 15.0 15.0 15.0 9.1 15.0 15.0 15.0 15.0 15.0 15.0 15.0 15.0 15.0 13.1 15.0 15.0 13.3 0.1 0.0 6.9 15.0 8.0 14.6 11.1 15.0 15.0 0.3 0.1
15.0 15.0 15.0 15.0 15.0 0.5 0.2 13.0 14.8 14.1 0.5 0.4 3.8 15.0 15.0 15.0 0.6 0.0 0.0 0.1 3.1 15.0 15.0 15.0 15.0 15.0 15.0 3.5 13.5 9.4 6.7 15.0 15.0 12.5 11.5 15.0 15.0 15.0 15.0 15.0 0.2 0.0 0.0
13.3 0.2 15.0 15.0 15.0 15.0 15.0 14.9 15.0 15.0 15.0 15.0 4.2 4.4 5.4 15.0 0.1 0.0 0.0 0.1 0.1 10.0 13.2 14.8 0.0 0.1 0.0 0.0 0.1 7.6 15.0 1.6 0.1 0.3 15.0 15.0 15.0 15.0 15.0 12.7 15.0 15.0 10.5
15.0 15.0 15.0 15.0 15.0 15.0 15.0 15.0 15.0 3.3 11.5 0.1 0.1 0.1 0.1 0.1 0.0 0.0 0.0 0.0 0.0 0.1 0.1 0.0 0.0 0.0 0.0 0.0 0.0 7.9 9.7 0.1 0.1 15.0 10.3 15.0 12.3 14.9 15.0 15.0 15.0 15.0 15.0
15.0 14.0 9.5 5.4 15.0 15.0 15.0 15.0 15.0 0.1 0.2 0.2 0.1 0.1 6.3 15.0 0.1 0.1 0.0 0.0 0.1 0.1 0.1 0.1 0.1 0.0 0.0 0.0 0.0 0.0 0.0 0.2 0.1 0.1 0.1 0.2 0.8 0.1 0.1 0.2 0.8 0.5 1.9
15.0 15.0 15.0 14.5 2.8 15.0 9.0 0.2 2.1 0.2 0.1 0.1 0.1 0.1 0.1 3.3 0.7 0.1 0.1 0.1 0.1 0.2 0.1 0.1 0.1 0.1 0.0 0.0 0.0 0.0 0.0 0.1 0.1 0.1 0.1 0.1 0.2 0.2 0.8 8.8 7.6 12.5 15.0
15.0 15.0 15.0 15.0 15.0 15.0 15.0 15.0 5.5 2.1 0.4 0.4 0.1 0.1 0.1 0.1 0.2 0.3 0.1 0.1 0.2 0.1 0.1 0.1 0.1 0.1 0.2 0.5 0.6 0.2 0.2 0.6 0.8 0.5 0.3 0.1 0.5 8.0 6.1 12.1 15.0 15.0 15.0
15.0 15.0 15.0 15.0 15.0 4.2 0.0 0.1 10.2 2.3 1.9 15.0 15.0 15.0 0.2 0.1 0.2 0.1 0.1 0.1 0.1 0.1 0.2 3.9 0.9 0.3 0.1 0.2 0.3 0.1 0.1 7.7 4.8 4.4 2.2 11.8 15.0 15.0 15.0 15.0 15.0 15.0 15.0
15.0 15.0 11.1 15.0 4.3 0.1 0.1 0.1 0.0 0.0 0.0 0.0 0.0 0.2 0.1 0.1 0.0 0.0 0.0 0.0 0.0 0.1 15.0 15.0 0.8 12.9 0.1 0.1 0.1 0.1 1.7 13.0 12.5 10.3 15.0 15.0 15.0 15.0 15.0 15.0 15.0 15.0 15.0
15.0 15.0 6.4 13.2 1.1 4.9 0.2 0.4 0.1 0.0 0.0 0.0 0.0 0.0 0.0 0.0 0.0 0.0 0.0 0.0 0.0 0.1 15.0 15.0 15.0 15.0 15.0 15.0 15.0 15.0 15.0 15.0 15.0 15.0 15.0 15.0 15.0 15.0 15.0 15.0 15.0 15.0 15.0
14.1 0.3 15.0 15.0 15.0 15.0 9.9 15.0 3.1 1.9 15.0 0.2 0.1 0.1 0.0 0.0 0.0 0.0 0.0 0.5 10.5 7.4 15.0 15.0 15.0 15.0 15.0 15.0 15.0 15.0 15.0 15.0 15.0 15.0 15.0 15.0 15.0 15.0 15.0 15.0 15.0 15.0 15.0
15.0 15.0 15.0 15.0 15.0 8.0 15.0 15.0 15.0 15.0 15.0 8.3 0.1 0.1 0.1 0.0 0.0 0.0 0.0 15.0 15.0 15.0 15.0 15.0 15.0 15.0 15.0 15.0 15.0 15.0 15.0 15.0 15.0 15.0 15.0 15.0 15.0 15.0 15.0 15.0 15.0 15.0 15.0
15.0 13.9 15.0 15.0 14.6 15.0 15.0 15.0 15.0 15.0 15.0 15.0 9.7 13.9 0.1 0.1 4.6 15.0 15.0 15.0 15.0 15.0 15.0 15.0 15.0 15.0 15.0 15.0 15.0 15.0 15.0 11.7 15.0 15.0 15.0 15.0 15.0 15.0 15.0 15.0 15.0 15.0 15.0
15.0 15.0 15.0 15.0 15.0 15.0 15.0 15.0 15.0 15.0 15.0 15.0 15.0 15.0 0.6 0.7 15.0 15.0 15.0 15.0 15.0 15.0 15.0 15.0 15.0 15.0 15.0 15.0 15.0 15.0 15.0 15.0 15.0 15.0 15.0 15.0 15.0 15.0 15.0 15.0 15.0 15.0 15.0
15.0 15.0 15.0 15.0 15.0 15.0 15.0 15.0 15.0 15.0 15.0 15.0 15.0 9.5 0.0 10.8 15.0 15.0 15.0 15.0 15.0 15.0 15.0 15.0 15.0 15.0 15.0 15.0 15.0 15.0 15.0 15.0 15.0 15.0 15.0 15.0 15.0 15.0 15.0 15.0 15.0 15.0 15.0
15.0 15.0 15.0 15.0 15.0 15.0 15.0 15.0 15.0 15.0 15.0 15.0 15.0 15.0 8.7 15.0 15.0 15.0 15.0 15.0 15.0 15.0 15.0 15.0 15.0 15.0 15.0 15.0 15.0 15.0 15.0 15.0 15.0 15.0 15.0 15.0 15.0 15.0 15.0 15.0 15.0 15.0 15.0
15.0 15.0 15.0 15.0 15.0 15.0 15.0 15.0 15.0 0.1 11.6 15.0 15.0 15.0 15.0 15.0 15.0 15.0 15.0 15.0 15.0 15.0 15.0 15.0 15.0 15.0 15.0 15.0 15.0 15.0 15.0 15.0 15.0 15.0 15.0 15.0 15.0 15.0 15.0 15.0 15.0 15.0 15.0
15.0 15.0 15.0 15.0 15.0 15.0 15.0 15.0 15.0 15.0 15.0 15.0 15.0 15.0 15.0 15.0 15.0 15.0 15.0 15.0 15.0 15.0 15.0 15.0 15.0 15.0 15.0 15.0 15.0 15.0 15.0 9.6 15.0 15.0 15.0 15.0 15.0 15.0 15.0 15.0 15.0 15.0 15.0
15.0 15.0 15.0 15.0 15.0 15.0 15.0 15.0 15.0 15.0 15.0 15.0 15.0 15.0 15.0 15.0 15.0 15.0 15.0 15.0 15.0 15.0 15.0 15.0 15.0 15.0 15.0 15.0 15.0 15.0 15.0 15.0 15.0 15.0 15.0 15.0 15.0 15.0 15.0 15.0 15.0 15.0 15.0